Weather History for Gustavus, AK

Change the Weather History Date:

Wednesday, August 7, 2013

  Actual Average Record
Temperature  
Mean Temperature 63 °F -  
Max Temperature 73 °F 66 °F 77 °F (2003)
Min Temperature 53 °F 45 °F 35 °F (1984)
Degree Days  
Heating Degree Days 2    
Growing Degree Days 13 (Base 50)    
Moisture  
Dew Point 55 °F    
Average Humidity 73    
Maximum Humidity 88    
Minimum Humidity 57    
Precipitation  
Precipitation 0.00 in - - ()
Sea Level Pressure  
Sea Level Pressure 29.96 in    
Wind  
Wind Speed 2 mph (SSW)    
Max Wind Speed 7 mph    
Max Gust Speed -    
Visibility 10 miles    
Events      
Averages and records for this station are not official NWS values.
T = Trace of Precipitation, MM = Missing Value Source: NWS Daily Summary

Daily Weather History Graph

Daily Weather History Graph

Search for Another Location

Airport:

Trip Planner

Search our weather history database for the weather conditions in past years. The results will help you decide how hot, cold, wet, or windy it might be!

Date:

Astronomy

Aug. 07, 2013 Rise Set
Actual Time 5:07 AM AKDT 9:08 PM AKDT
Civil Twilight 4:16 AM AKDT 9:58 PM AKDT
Nautical Twilight 2:57 AM AKDT 11:15 PM AKDT
Astronomical Twilight 1:41 AM AKDT 12:36 AM AKDT
Moon 6:32 AM AKDT (8/7) 8:42 PM AKDT (8/7)
Length of Visible Light 17h 42m
Length of Day
16h 00m
New Moon, 1% of the Moon is Illuminated
Aug 7
New Moon
Aug 14
First Quarter
Aug 20
Full
Aug 28
Last Quarter
Sep 5
New

Hourly Weather History & Observations

Time (AKDT) Temp. Dew Point Humidity Pressure Visibility Wind Dir Wind Speed Gust Speed Precip Events Conditions
12:16 AM 53.6 °F 50.0 °F 88% 30.00 in 10.0 mi SE 3.5 mph - N/A   Clear
12:36 AM 55.4 °F 50.0 °F 82% 30.00 in 10.0 mi Calm Calm - N/A   Clear
12:56 AM 53.6 °F 50.0 °F 88% 30.00 in 10.0 mi Calm Calm - N/A   Clear
1:16 AM 53.6 °F 50.0 °F 88% 30.00 in 10.0 mi Calm Calm - N/A   Clear
1:36 AM 53.6 °F 50.0 °F 88% 30.00 in 10.0 mi Calm Calm - N/A   Clear
1:56 AM 53.6 °F 50.0 °F 88% 30.00 in 10.0 mi Calm Calm - N/A   Clear
2:36 AM 53.6 °F 50.0 °F 88% 29.99 in 10.0 mi Calm Calm - N/A   Clear
2:56 AM 53.6 °F 50.0 °F 88% 29.99 in 10.0 mi Calm Calm - N/A   Clear
3:16 AM 53.6 °F 50.0 °F 88% 29.99 in 10.0 mi Calm Calm - N/A   Clear
10:16 AM 66.2 °F 57.2 °F 73% 29.98 in 10.0 mi South 4.6 mph - N/A   Mostly Cloudy
10:36 AM 64.4 °F 57.2 °F 77% 29.98 in 10.0 mi SSW 4.6 mph - N/A   Mostly Cloudy
10:56 AM 64.4 °F 57.2 °F 77% 29.98 in 10.0 mi WSW 4.6 mph - N/A   Overcast
11:16 AM 66.2 °F 57.2 °F 73% 29.98 in 10.0 mi South 3.5 mph - N/A   Overcast
11:36 AM 66.2 °F 57.2 °F 73% 29.98 in 10.0 mi SW 3.5 mph - N/A   Overcast
11:56 AM 66.2 °F 57.2 °F 73% 29.98 in 10.0 mi SSW 3.5 mph - N/A   Mostly Cloudy
12:16 PM 69.8 °F 57.2 °F 64% 29.98 in 10.0 mi SW 4.6 mph - N/A   Partly Cloudy
12:36 PM 69.8 °F 57.2 °F 64% 29.97 in 10.0 mi Calm Calm - N/A   Clear
12:56 PM 69.8 °F 55.4 °F 60% 29.97 in 10.0 mi ESE 3.5 mph - N/A   Clear
1:16 PM 71.6 °F 57.2 °F 60% 29.97 in 10.0 mi South 6.9 mph - N/A   Partly Cloudy
1:36 PM 71.6 °F 57.2 °F 60% 29.97 in 10.0 mi SSW 4.6 mph - N/A   Clear
1:56 PM 71.6 °F 57.2 °F 60% 29.97 in 10.0 mi South 4.6 mph - N/A   Scattered Clouds
2:16 PM 71.6 °F 57.2 °F 60% 29.97 in 10.0 mi South 5.8 mph - N/A   Partly Cloudy
2:36 PM 71.6 °F 57.2 °F 60% 29.96 in 10.0 mi SSW 3.5 mph - N/A   Clear
2:56 PM 71.6 °F 57.2 °F 60% 29.96 in 10.0 mi SSW 4.6 mph - N/A   Partly Cloudy
3:16 PM 71.6 °F 57.2 °F 60% 29.96 in 10.0 mi Calm Calm - N/A   Partly Cloudy
3:36 PM 71.6 °F 57.2 °F 60% 29.96 in 10.0 mi WSW 5.8 mph - N/A   Clear
3:56 PM 71.6 °F 57.2 °F 60% 29.95 in 10.0 mi Calm Calm - N/A   Clear
4:16 PM 73.4 °F 57.2 °F 57% 29.95 in 10.0 mi Calm Calm - N/A   Clear
4:36 PM 73.4 °F 57.2 °F 57% 29.94 in 10.0 mi SSE 5.8 mph - N/A   Clear
4:56 PM 71.6 °F 57.2 °F 60% 29.94 in 10.0 mi SSW 3.5 mph - N/A   Clear
5:16 PM 71.6 °F 55.4 °F 57% 29.94 in 10.0 mi SSW 4.6 mph - N/A   Clear
5:36 PM 69.8 °F 57.2 °F 64% 29.94 in 10.0 mi SW 5.8 mph - N/A   Clear
5:56 PM 69.8 °F 55.4 °F 60% 29.94 in 10.0 mi SSW 4.6 mph - N/A   Clear
6:16 PM 69.8 °F 55.4 °F 60% 29.94 in 10.0 mi SW 4.6 mph - N/A   Clear
6:36 PM 69.8 °F 55.4 °F 60% 29.94 in 10.0 mi SSW 4.6 mph - N/A   Clear
6:56 PM 68.0 °F 55.4 °F 64% 29.94 in 10.0 mi Calm Calm - N/A   Clear
7:16 PM 64.4 °F 53.6 °F 68% 29.94 in 10.0 mi SW 5.8 mph - N/A   Clear
7:36 PM 62.6 °F 53.6 °F 72% 29.94 in 10.0 mi SW 3.5 mph - N/A   Clear
7:56 PM 62.6 °F 53.6 °F 72% 29.94 in 10.0 mi SSW 3.5 mph - N/A   Clear
8:16 PM 62.6 °F 53.6 °F 72% 29.94 in 10.0 mi Calm Calm - N/A   Clear
8:36 PM 62.6 °F 53.6 °F 72% 29.94 in 10.0 mi Calm Calm - N/A   Clear
8:56 PM 60.8 °F 53.6 °F 77% 29.94 in 10.0 mi Calm Calm - N/A   Clear
9:16 PM 60.8 °F 53.6 °F 77% 29.94 in 10.0 mi SSW 3.5 mph - N/A   Mostly Cloudy
9:36 PM 59.0 °F 53.6 °F 82% 29.94 in 10.0 mi SW 4.6 mph - N/A   Overcast
9:56 PM 57.2 °F 53.6 °F 88% 29.94 in 10.0 mi SW 4.6 mph - N/A   Mostly Cloudy
10:16 PM 57.2 °F 53.6 °F 88% 29.94 in 10.0 mi Calm Calm - N/A   Mostly Cloudy
10:36 PM 57.2 °F 53.6 °F 88% 29.94 in 10.0 mi Calm Calm - N/A   Mostly Cloudy
10:56 PM 57.2 °F 53.6 °F 88% 29.94 in 10.0 mi Calm Calm - N/A   Mostly Cloudy
11:16 PM 57.2 °F 53.6 °F 88% 29.94 in 10.0 mi Calm Calm - N/A   Mostly Cloudy
11:36 PM 57.2 °F 53.6 °F 88% 29.94 in 10.0 mi Calm Calm - N/A   Mostly Cloudy
11:56 PM 57.2 °F 53.6 °F 88% 29.94 in 10.0 mi SSW 3.5 mph - N/A   Overcast